Regional Weather Roundup
Issued by NWS

Home | Current Version | Previous Version | Graphics & Text | Print | Product List | Glossary On
Versions: 1 2 3 4 5 6 7 8 9 10 11 12 13 14 15 16 17 18 19 20 21 22 23 24 25 26 27 28 29 30 31 32 33 34 35 36 37 38 39 40 41 42 43 44 45 46 47 48 49 50
000
ASUS45 KCYS 091610
RWRWY

WYOMING REGIONAL WEATHER ROUNDUP
NATIONAL WEATHER SERVICE CHEYENNE WY
1000 AM MDT WED JUL 09 2014

NOTE:  "FAIR" INDICATES FEW OR NO CLOUDS BELOW 12,000 FEET
WITH NO SIGNIFICANT WEATHER AND/OR OBSTRUCTIONS TO VISIBILITY.

WYZ001-091700-
YELLOWSTONE NATIONAL PARK

CITY           SKY/WX    TMP DP  RH WIND       PRES   REMARKS
LK YELLOWSTONE   N/A     60  47  61 CALM      30.31S
W YELLOWSTONE  NOT AVBL

$$
WYZ002>013-054>058-071-098>099-091700-
NORTHERN WYOMING

CITY           SKY/WX    TMP DP  RH WIND       PRES   REMARKS
JACKSON        SUNNY     66  45  45 CALM      30.21F
CODY           NOT AVBL
GREYBULL       SUNNY     77  48  35 CALM      30.01S
WORLAND        SUNNY     76  50  40 W5        30.02F
SHERIDAN       SUNNY     74  53  48 CALM      30.03F
BUFFALO        SUNNY     74  51  44 SE9       30.09F
GILLETTE         N/A     74  50  42 S8        30.07S
HULETT         FAIR      73  54  49 MISG      30.08
NEWCASTLE      FAIR      75  46  35 SE10      30.07

$$
WYZ014>020-022>026-101>103-091700-
CENTRAL WYOMING

CITY           SKY/WX    TMP DP  RH WIND       PRES   REMARKS
BIG PINEY      SUNNY     73  40  30 CALM      30.25S
PINEDALE       SUNNY     72  41  33 CALM      30.26S
DUBOIS         FAIR      72  43  35 NW9       30.21F
LANDER         SUNNY     78  45  30 VRB5      30.11F
RIVERTON       SUNNY     73  46  38 VRB3      30.12F
CASPER         SUNNY     75  50  41 S5        30.11F
DOUGLAS        MOSUNNY   70  54  56 VRB5      30.11F

$$
WYZ021-027>030-104>119-091700-
SOUTHERN WYOMING

CITY           SKY/WX    TMP DP  RH WIND       PRES   REMARKS
EVANSTON       MOSUNNY   76  44  32 SW16      30.27S
FORT BRIDGER   FAIR      83  37  19 W12G18    30.28F
ROCK SPRINGS   SUNNY     82  32  16 W13       30.22S
DIXON          FAIR      81  42  25 SW15G21   30.25F
RAWLINS        SUNNY     80  36  20 SW21G28   30.21S
SARATOGA       FAIR      79  37  22 W22G31    30.24R
LARAMIE        SUNNY     78  41  26 W16G23    30.23S
CHEYENNE       MOSUNNY   78  51  38 E7        30.17S
TORRINGTON     PTSUNNY   67  59  75 W9        30.05S

$$



USA.gov is the U.S. government's official web portal to all federal, state and local government web resources and services.